Location: Mat�lon
(46.2791°N, 7.1028°E)
Time: 02:28:52
(UTC+00:00)

KORONAS-FOTON - Pass Details

Date: 18 September 2020
Orbit: 505 x 532 km, 82.4° (Epoch: 29 October)

Event Time Altitude Azimuth Distance (km) Brightness Sun altitude
Rises 19:21:15 0° 355° (N) 2,688 7.8 -18.4°
Reaches altitude 10° 19:23:27 10° 360° (N) 1,794 6.8 -18.8°
Maximum altitude 19:27:19 53° 78° (ENE) 662 4.0 -19.4°
Enters shadow 19:27:30 52° 89° (E) 666 3.9 -19.4°
